Flag for Norway Weather past 2 weeks in Arendal, Norway

Now
61 °F

Cool.


Feels Like: 61 °F
Forecast: 52 / 62 °F
Wind: 2 mph from South

Location: Torungen Fyr

Current Time: Aug 31, 2014 at 4:32:51 AM

Latest Report: Aug 31, 2014 at 3:00 AM


Visibility: N/A

Pressure: 29.88 "Hg

Humidity: 90%

Dew point: 58 °F

Location of ArendalLocation

Historic Weather in Arendal — Graph

°F

Arendal temperature yesterday

Maximum temperature yesterday: 62 °F (at 4:00 PM)
Minimum temperature yesterday: 59 °F (at 2:00 AM)
Average temperature yesterday: 61 °F

Past Weeks' High & Low Weather Summary

 TemperatureHumidityPressure
High70 °F (Aug 16, 4:00 PM)96% (Aug 28, 2:00 AM)29.99 "Hg (Aug 28, 2:00 AM)
Low48 °F (Aug 24, 6:00 AM)40% (Aug 16, 6:00 PM)29.18 "Hg (Aug 18, 11:00 AM)
Average59 °F77%29.65 "Hg
* Reported Aug 16 3:00 AM — Aug 31 3:00 AM, Arendal, Weather by CustomWeather, © 2014

Note: Actual official high and low records may vary slightly from our data, if they occured in-between our weather recording intervals... More about our weather records

Advertising

Arendal weather history for previous 24 hours

 ConditionsComfort  
Time TempWeatherWind HumidityBarometerVisibility
3:00 AM
Aug 31
61 °FCool.2 mph90%29.88 "HgN/A
2:00 AM61 °FCool.3 mph92%29.88 "HgN/A
1:00 AM62 °FCool.3 mph92%29.87 "HgN/A
12:00 AM61 °FCool.6 mph92%29.86 "HgN/A
11:00 PM
Aug 30
61 °FCool.7 mph92%29.85 "HgN/A
10:00 PM61 °FCool.6 mph94%29.85 "HgN/A
9:00 PM61 °FCool.13 mph91%29.84 "HgN/A
8:00 PM61 °FCool.16 mph94%29.82 "HgN/A
7:00 PM62 °FCool.14 mph92%29.83 "HgN/A
6:00 PM61 °FCool.15 mph93%29.83 "HgN/A
5:00 PM61 °FCool.15 mph94%29.83 "HgN/A
4:00 PM62 °FMild.13 mph88%29.83 "HgN/A
3:00 PM62 °FCool.12 mph87%29.85 "HgN/A
2:00 PM62 °FCool.9 mph88%29.86 "HgN/A
1:00 PM62 °FCool.8 mph85%29.86 "HgN/A
12:00 PM62 °FCool.8 mph84%29.86 "HgN/A
11:00 AM62 °FCool.7 mph85%29.86 "HgN/A
10:00 AM61 °FCool.5 mph83%29.85 "HgN/A
9:00 AM61 °FCool.5 mph89%29.84 "HgN/A
8:00 AM61 °FCool.6 mph91%29.84 "HgN/A
7:00 AM61 °FCool.5 mph92%29.83 "HgN/A
6:00 AM60 °FCool.12 mph94%29.83 "HgN/A
5:00 AM59 °FCool.10 mph93%29.84 "HgN/A
4:00 AM59 °FCool.14 mph93%29.86 "HgN/A
Weather by CustomWeather, © 2014

See weather overviewHow to use our weather pages